Flag for Switzerland Weather past 2 weeks in Riehen, Basel-Stadt, Switzerland

Now
63 °F

Light rain. Low clouds.


Feels Like: 63 °F
Forecast: 62 / 81 °F
Wind: 8 mph from West

Location: Bale-Mulhouse

Current Time: Jul 22, 2014 at 10:02:47 AM

Latest Report: Jul 22, 2014 at 9:00 AM


Visibility: 6 mi

Pressure: 29.93 "Hg

Humidity: 94%

Dew point: 61 °F

Location of RiehenLocation

Historic Weather in Riehen — Graph

°F

Riehen temperature yesterday

Maximum temperature yesterday: 71 °F (at 5:00 PM)
Minimum temperature yesterday: 62 °F (at 5:00 AM)
Average temperature yesterday: 65 °F

Past Weeks' High & Low Weather Summary

 TemperatureHumidityPressure
High92 °F (Jul 18, 5:00 PM)97% (Jul 11, 5:00 AM)30.20 "Hg (Jul 11, 5:00 AM)
Low53 °F (Jul 16, 6:00 AM)19% (Jul 18, 5:00 PM)29.78 "Hg (Jul 19, 7:00 PM)
Average66 °F78%29.97 "Hg
* Reported Jul 7 8:00 AM — Jul 22 8:00 AM, Riehen, Weather by CustomWeather, © 2014

Note: Actual official high and low records may vary slightly from our data, if they occured in-between our weather recording intervals... More about our weather records

Advertising

Riehen weather history for previous 24 hours

 ConditionsComfort  
Time TempWeatherWind HumidityBarometerVisibility
8:00 AM
Jul 22
63 °FRain. Low clouds.6 mph94%29.93 "Hg4 mi
7:00 AM64 °FLight rain. Low clouds.6 mph93%29.93 "Hg6 mi
6:00 AM65 °FLow clouds.3 mph93%29.93 "Hg3 mi
5:00 AM64 °FOvercast.2 mph94%29.92 "Hg9 mi
4:00 AM64 °FOvercast.6 mph93%29.92 "Hg9 mi
3:00 AM65 °FOvercast.7 mph94%29.92 "Hg5 mi
2:00 AM65 °FLight rain. Overcast.9 mph94%29.93 "Hg5 mi
1:00 AM65 °FOvercast.8 mph94%29.93 "Hg6 mi
12:00 AM65 °FLight rain. Overcast.8 mph94%29.94 "Hg6 mi
11:00 PM
Jul 21
65 °FLight rain. Overcast.3 mph94%29.94 "Hg6 mi
10:00 PM65 °FOvercast.5 mph94%29.95 "Hg6 mi
9:00 PM64 °FRain showers. Overcast.2 mph94%29.94 "Hg2 mi
8:00 PM65 °FSprinkles. Overcast.7 mph94%29.93 "Hg5 mi
7:00 PM67 °FSprinkles. Overcast.10 mph84%29.92 "Hg19 mi
6:00 PM70 °FOvercast.9 mph76%29.92 "Hg19 mi
5:00 PM71 °FOvercast.8 mph74%29.91 "Hg12 mi
4:00 PM70 °FOvercast.9 mph74%29.92 "Hg12 mi
3:00 PM70 °FOvercast.9 mph75%29.92 "Hg12 mi
2:00 PM68 °FOvercast.9 mph80%29.93 "Hg12 mi
1:00 PM66 °FOvercast.10 mph79%29.93 "Hg12 mi
12:00 PM68 °FOvercast.8 mph74%29.93 "Hg12 mi
11:00 AM66 °FOvercast.8 mph79%29.93 "Hg12 mi
10:00 AM66 °FOvercast.6 mph79%29.92 "Hg12 mi
Weather by CustomWeather, © 2014

See weather overviewHow to use our weather pages